Tracking 29892 objects as of 21-Nov-2024
HD Live streaming from Space Station
objects crossing your sky now

COSMOS 886 DEB

Track COSMOS 886 DEB now!
10-day predictions


NORAD ID: 9807
Int'l Code: 1976-126AA
Perigee: 511.0 km
Apogee: 1,108.8 km
Inclination: 65.8 °
Period: 100.9 minutes
Semi major axis: 7180 km
RCS: 0.0594 m2 (small)
Launch date: December 27, 1976
Source: Commonwealth of Independent States (former USSR) (CIS)
Launch site: TYURATAM MISSILE AND SPACE COMPLEX (TTMTR)

Note: This is SATELLITE DEBRIS
Your satellite tracking list
Your tracking list is empty




NASA's NSSDC Master Catalog

Two Line Element Set (TLE):
1 09807U 76126AA  24325.38175012  .00025119  00000-0  40870-2 0  9998
2 09807  65.7730  90.0526 0416247 145.8396 217.0245 14.26705832352511
Source of the keplerian elements: AFSPC